Weather History for Spirit of St Louis, MO

Change the Weather History Date:

Saturday, February 16, 2013

  Actual Average Record
Temperature  
Mean Temperature 28 °F -  
Max Temperature 37 °F 45 °F 73 °F (2006)
Min Temperature 19 °F 27 °F 3 °F (2007)
Degree Days  
Heating Degree Days 37    
Moisture  
Dew Point 11 °F    
Average Humidity 55    
Maximum Humidity 74    
Minimum Humidity 28    
Precipitation  
Precipitation 0.00 in - - ()
Sea Level Pressure  
Sea Level Pressure 30.25 in    
Wind  
Wind Speed 6 mph (NW)    
Max Wind Speed 13 mph    
Max Gust Speed 20 mph    
Visibility 10 miles    
Events      
Averages and records for this station are not official NWS values.
T = Trace of Precipitation, MM = Missing Value Source: NWS Daily Summary

Daily Weather History Graph

Daily Weather History Graph

Search for Another Location

Airport:

Trip Planner

Search our weather history database for the weather conditions in past years. The results will help you decide how hot, cold, wet, or windy it might be!

Date:

Astronomy

Feb. 16, 2013 Rise Set
Actual Time 6:51 AM CST 5:41 PM CST
Civil Twilight 6:24 AM CST 6:09 PM CST
Nautical Twilight 5:53 AM CST 6:40 PM CST
Astronomical Twilight 5:23 AM CST 7:10 PM CST
Moon 10:09 AM CST (2/16) No Moon Set
Length of Visible Light 11h 44m
Length of Day
10h 49m
Waxing Crescent, 39% of the Moon is Illuminated
Feb 16
Waxing Crescent
Feb 17
First Quarter
Feb 25
Full
Mar 4
Last Quarter
Mar 11
New

Hourly Weather History & Observations

Time (CST) Temp. Windchill Dew Point Humidity Pressure Visibility Wind Dir Wind Speed Gust Speed Precip Events Conditions
12:54 AM 26.1 °F 17.6 °F 12.9 °F 58% 30.27 in 10.0 mi NNW 8.1 mph - N/A   Clear
1:54 AM 25.0 °F 16.3 °F 12.9 °F 60% 30.27 in 10.0 mi NW 8.1 mph - N/A   Clear
2:54 AM 23.0 °F 17.0 °F 12.9 °F 65% 30.27 in 10.0 mi West 4.6 mph - N/A   Clear
3:54 AM 23.0 °F 17.0 °F 12.0 °F 63% 30.27 in 10.0 mi West 4.6 mph - N/A   Clear
4:54 AM 21.0 °F 13.4 °F 12.0 °F 68% 30.28 in 10.0 mi West 5.8 mph - N/A   Clear
5:54 AM 21.0 °F 14.6 °F 12.0 °F 68% 30.28 in 10.0 mi West 4.6 mph - N/A   Clear
6:54 AM 19.9 °F 13.4 °F 12.0 °F 71% 30.30 in 10.0 mi West 4.6 mph - N/A   Clear
7:54 AM 21.9 °F 14.5 °F 14.0 °F 72% 30.31 in 10.0 mi WNW 5.8 mph - N/A   Clear
8:54 AM 24.1 °F 13.7 °F 12.0 °F 60% 30.32 in 10.0 mi NNW 10.4 mph - N/A   Partly Cloudy
9:54 AM 26.1 °F 16.8 °F 10.9 °F 53% 30.31 in 10.0 mi NNW 9.2 mph - N/A   Clear
10:54 AM 28.9 °F 22.8 °F 12.0 °F 49% 30.31 in 10.0 mi NNW 5.8 mph - N/A   Clear
11:54 AM 32.0 °F 22.5 °F 9.0 °F 38% 30.28 in 10.0 mi WNW 12.7 mph - N/A   Clear
12:54 PM 35.1 °F 28.6 °F 9.0 °F 34% 30.25 in 10.0 mi WNW 8.1 mph - N/A   Clear
1:54 PM 36.0 °F 28.5 °F 8.1 °F 31% 30.22 in 10.0 mi NNW 10.4 mph 19.6 mph N/A   Clear
2:54 PM 37.0 °F 29.8 °F 6.1 °F 28% 30.20 in 10.0 mi NW 10.4 mph 17.3 mph N/A   Clear
3:54 PM 37.9 °F 31.5 °F 7.0 °F 28% 30.20 in 10.0 mi NNW 9.2 mph - N/A   Clear
4:54 PM 36.0 °F 30.3 °F 6.1 °F 29% 30.20 in 10.0 mi West 6.9 mph - N/A   Clear
5:54 PM 30.9 °F - 9.0 °F 40% 30.21 in 10.0 mi Calm Calm - N/A   Clear
6:54 PM 26.1 °F - 12.9 °F 58% 30.22 in 10.0 mi Calm Calm - N/A   Clear
7:54 PM 25.0 °F - 12.9 °F 60% 30.22 in 10.0 mi Calm Calm - N/A   Clear
8:54 PM 23.0 °F - 12.0 °F 63% 30.23 in 10.0 mi Calm Calm - N/A   Clear
9:54 PM 21.9 °F - 12.9 °F 68% 30.23 in 10.0 mi Calm Calm - N/A   Clear
10:54 PM 21.0 °F - 12.9 °F 71% 30.22 in 10.0 mi Calm Calm - N/A   Clear
11:54 PM 19.9 °F - 12.9 °F 74% 30.21 in 10.0 mi Calm Calm - N/A   Clear